Content
SEND FEEDBACK

Daily
Averages
Monthly
Summary
Canada

QUEBEC CITY, QUEBEC


Home > North America > Canada > Quebec
Elevation: 239 feet     Latitude: 46 48N     Longitude: 071 23W

WEATHER
 
SELECT A DAY
Number of Records: 195,813;   Date Range: 6/30/96 - 10/21/14
 
SHARE

PRINT THIS DATA

[ ← Previous Day ]
WEATHER ALMANAC - NOVEMBER 21, 2013
[ Next Day → ]
[ °C ]   °F
Weather ElementAverageHighLow
Temperature27.5 °F37.4 °F (1:00 pm)17.6 °F (6:00 am)
Dewpoint18.1 °F24 °F (7:00 pm)14 °F (1:00 am)
Humidity67.1 %86 % (6:00 am)32 % (1:00 pm)
Barometer30.51 in30.66 in (1:00 am)30.37 in (10:00 pm)
Wind Speed2.1 mph3.5 mph (1:00 am)
Weather ElementAverage
Visibility20.2 mi
Wind DirectionS (175.6 °)

Weather ElementTotal
Precipitation---
Heating Degree Days37.5 (Base 65)
Averaged from 32 records on November 21, 2013
WEATHER CONDITIONS BREAKOUT
WIND DIRECTION BREAKOUT
WEATHER BY HOUR - NOVEMBER 21, 2013
[ °C ]   °F
Local TimeTemperatureDewpointHumidityBarometerVisibilityWind DirectionWind SpeedGust SpeedPrecipitationEventsConditions
1:00 AM20.0 °F15.0 °F75 %30.65 inWNW (290°)2.3 mph
1:00 AM19.4 °F14.0 °F80 %30.66 in15.0 miWest (270°)3.5 mphClear
2:00 AM21.2 °F14.0 °F74 %30.65 in15.0 miNorth (360°)2.3 mphClear
3:00 AM19.4 °F14.0 °F80 %30.64 in15.0 miCalmScattered Clouds
4:00 AM20.0 °F16.0 °F79 %30.62 inWest (280°)3.5 mph
4:00 AM19.4 °F14.0 °F80 %30.63 in15.0 miCalmScattered Clouds
5:00 AM19.4 °F14.0 °F80 %30.61 in15.0 miCalmScattered Clouds
6:00 AM17.6 °F14.0 °F86 %30.62 in15.0 miNNW (340°)2.3 mphPartly Cloudy
7:00 AM19.4 °F14.0 °F80 %30.61 in15.0 miNNE (30°)2.3 mphScattered Clouds
7:00 AM18.0 °F15.0 °F85 %30.61 inNorth (350°)2.3 mph
8:00 AM21.2 °F15.8 °F80 %30.60 in15.0 miNorth (10°)3.5 mphScattered Clouds
9:00 AM26.6 °F19.4 °F74 %30.58 in30.0 miVariable2.3 mphScattered Clouds
10:00 AM30.0 °F21.0 °F57 %30.55 inSW (230°)2.3 mph
10:00 AM30.2 °F21.2 °F69 %30.57 in30.0 miSW (220°)3.5 mphScattered Clouds
11:00 AM32.0 °F19.4 °F60 %30.54 in30.0 miCalmMostly Cloudy
12:00 PM35.6 °F17.6 °F48 %30.51 in30.0 miSSW (210°)3.5 mphMostly Cloudy
1:00 PM37.4 °F21.2 °F52 %30.49 in30.0 miSSW (200°)3.5 mphMostly Cloudy
1:00 PM37.0 °F18.0 °F32 %30.47 inSSW (210°)2.3 mph
1:33 PM35.6 °F21.2 °F56 %30.47 in30.0 miSSW (200°)3.5 mphMostly Cloudy
2:00 PM35.6 °F19.4 °F52 %30.46 in30.0 miWSW (240°)2.3 mphMostly Cloudy
3:00 PM35.6 °F19.4 °F52 %30.45 in30.0 miWest (280°)3.5 mphMostly Cloudy
4:00 PM34.0 °F21.0 °F46 %30.42 inSSW (210°)1.2 mph
4:00 PM33.8 °F19.4 °F56 %30.43 in20.0 miSouth (180°)2.3 mphMostly Cloudy
5:00 PM32.0 °F19.4 °F60 %30.43 in15.0 miCalmOvercast
6:00 PM30.2 °F21.2 °F69 %30.43 in15.0 miNNW (340°)2.3 mphOvercast
7:00 PM29.0 °F24.0 °F74 %30.41 inWNW (290°)2.3 mph
7:00 PM30.2 °F19.4 °F64 %30.42 in15.0 miNNW (340°)3.5 mphMostly Cloudy
8:00 PM30.2 °F17.6 °F60 %30.40 in15.0 miCalmMostly Cloudy
9:00 PM30.2 °F17.6 °F60 %30.39 in15.0 miVariable2.3 mphMostly Cloudy
10:00 PM26.0 °F22.0 °F78 %30.37 inWNW (300°)1.2 mph
10:00 PM26.6 °F17.6 °F69 %30.38 in15.0 miCalmMostly Cloudy
11:00 PM26.6 °F21.2 °F80 %30.37 in15.0 miWSW (240°)3.5 mphMostly Cloudy
Hourly data recorded from CYQB, located miles away from Quebec City, Quebec







STORIES FROM OUR PARTNERS